CAPE
84 1 0 0 0 0 0 0 0 0 0 0 0 0 0 0 0 0 0 0 0 0
2 0 0 0 0 0 0 0 0 0 0 0 0 0 0 0 0 0 0 0 0 0
6 0 0 0 0 0 0 0 0 0 0 0 0 0 0 0 0 0 0 0 0 0
0 0 0 0 0 0 0 0 0 0 0 0 0 0 0 0 0 0 0 0 0 0
0 0 0 0 0 0 0 0 0 0 0 0 0 0 0 0 0 0 0 0 0 0
0 0 0 0 0 0 0 0 0 0 0 0 0 0 0 0 0 0 0 0 0 0
0 0 0 0 0 0 0 0 0 0 0 0 0 0 0 0 0 0 0 0 0 0
0 0 0 0 0 0 0 0 0 0 0 0 0 0 0 0 0 0 0 0 0 0
0 0 0 0 0 0 0 0 0 0 0 0 0 0 0 0 0 0 0 0 0 0
0 0 0 0 0 0 0 0 0 0 0 0 0 0 0 0 0 0 0 0 0 0
0 0 0 0 0 0 0 0 0 0 0 0 0 0 0 0 0 0 0 0 0 0
0 0 0 0 0 0 0 0 0 0 0 0 0 0 0 0 0 0 0 0 0 0
0 0 0 0 0 0 0 0 0 0 0 0 0 0 0 0 0 0 0 0 0 0
0 0 0 0 0 0 0 0 0 0 0 0 0 0 0 0 0 0 0 0 0 0
CIN
-263 -49 0 0 0 0 0 0 0 0 0 0 0 0 0 0 0 0 0 0 0 0
-96 -51 0 0 0 0 0 0 0 0 0 0 0 0 0 0 0 0 0 0 0 0
-260 0 0 0 0 0 0 0 0 0 0 0 0 0 0 0 0 0 0 0 0 0
0 0 0 0 0 0 0 0 0 0 0 0 0 0 0 0 0 0 0 0 0 0
0 0 0 0 0 0 0 0 0 0 0 0 0 0 0 0 0 0 0 0 0 0
0 0 0 0 0 0 0 0 0 0 0 0 0 0 0 0 0 0 0 0 0 0
0 0 0 0 0 0 0 0 0 0 0 0 0 0 0 0 0 0 0 0 0 0
0 0 0 0 0 0 0 0 0 0 0 0 0 0 0 0 0 0 0 0 0 0
0 0 0 0 0 0 0 0 0 0 0 0 0 0 0 0 0 0 0 0 0 0
0 0 0 0 0 0 0 0 0 0 0 0 0 0 0 0 0 0 0 0 0 0
0 0 0 0 0 0 0 0 0 0 0 0 0 0 0 0 0 0 0 0 0 0
0 0 0 0 0 0 0 0 0 0 0 0 0 0 0 0 0 0 0 0 0 0
0 0 0 0 0 0 0 0 0 0 0 0 0 0 0 0 0 0 0 0 0 0
0 0 0 0 0 0 0 0 0 0 0 0 0 0 0 0 0 0 0 0 0 0
Wind_Speed
26 19 14 12 8 7 6 5 5 7 8 9 9 10 12 14 15 16 18 19 20 21
27 20 15 12 9 7 4 4 4 5 6 7 8 10 11 13 14 15 16 18 19 21
24 19 11 10 9 6 3 1 3 4 5 6 7 9 11 12 13 15 16 18 20 22
25 19 16 13 8 5 2 2 2 3 5 6 7 9 10 11 13 15 16 18 20 23
18 16 13 9 8 5 4 1 1 4 5 5 6 8 9 10 11 14 16 18 21 23
21 17 13 11 8 6 3 2 0 3 4 5 6 7 8 9 11 13 16 18 22 23
20 16 14 12 9 6 3 2 1 3 3 3 6 7 8 9 11 14 16 19 22 24
19 15 12 12 9 5 3 2 1 1 2 4 6 7 8 9 11 14 16 18 23 25
18 14 13 13 8 6 4 3 1 0 3 5 6 7 8 9 12 14 17 19 23 25
18 14 15 13 10 7 5 4 2 2 4 5 6 6 8 9 12 15 17 21 23 24
17 14 15 14 10 8 7 5 5 3 3 6 5 7 8 10 12 15 18 20 22 24
18 18 19 13 10 9 7 5 4 3 2 4 5 7 8 10 12 15 18 19 21 23
18 20 20 14 11 10 8 5 2 1 1 3 4 7 9 9 11 15 17 19 21 23
20 22 21 15 12 9 7 4 2 2 1 3 6 7 9 9 11 14 16 18 20 22
Wind_Direction
223 222 223 232 241 266 284 315 352 9 23 25 30 38 36 41 46 47 48 48 44 40
220 218 226 234 242 263 278 315 9 27 23 25 33 36 41 48 49 47 47 45 45 38
217 219 204 223 235 245 266 16 53 32 30 28 27 44 47 45 51 49 44 43 40 35
212 215 221 228 226 215 186 119 68 54 54 42 44 43 45 47 48 43 41 37 33 30
200 205 209 204 207 196 209 182 96 74 64 47 49 48 44 46 45 40 35 32 28 26
205 202 197 203 194 172 186 174 112 84 76 63 58 49 38 38 37 37 33 28 26 25
200 191 189 201 192 179 178 200 215 77 65 55 61 50 42 43 39 38 32 30 25 23
201 196 175 197 203 191 186 213 218 52 37 53 56 60 63 42 39 40 34 27 24 21
198 175 180 203 194 200 207 231 193 117 88 71 55 71 63 44 39 36 30 24 21 21
195 188 199 204 213 216 201 193 183 121 94 74 62 61 56 49 43 33 28 24 23 21
193 185 199 209 212 213 209 180 140 121 99 85 60 70 63 58 42 29 27 27 25 20
192 204 210 204 200 202 199 190 153 133 112 94 67 73 71 61 41 28 25 27 23 17
193 201 211 207 202 214 215 220 208 197 257 73 67 90 84 62 42 27 27 25 20 15
177 200 208 206 207 205 211 201 192 143 9 45 51 77 80 61 33 33 26 21 18 16